THY163 OMDB-LTFM

Flight info

Callsign THY163
Flight time N/A
Altitude 38000
Route RIDAP M557 TUMAK L602 RALKA/N0486F400 L602 GADSI M860 NINVA UM860 NAREN UT368 UMLEN UL718 ETESU UT888 SIV UL615 YAVRU UA4 ERSEN
Aircraft B772/H-SDE2E3FGHIJ5LORVWXY/LB1D1

Departure

Time 2026-04-26 09:15
Airport Dubai International Airport (OMDB)

Arrival

Time N/A
Airport İstanbul Airport (LTFM)
Time Latitude Longitude Altitude Speed Heading
2026-04-26 08:36 25.24347 55.37366 50 ft 0 kts 212°
2026-04-26 09:01 25.24357 55.37373 50 ft 2 kts 211°
2026-04-26 09:01 25.24370 55.37382 51 ft 2 kts 211°
2026-04-26 09:02 25.24383 55.37391 52 ft 2 kts 211°
2026-04-26 09:02 25.24394 55.37398 52 ft 0 kts 211°
2026-04-26 09:02 25.24404 55.37404 53 ft 2 kts 199°
2026-04-26 09:02 25.24418 55.37407 54 ft 2 kts 177°
2026-04-26 09:03 25.24433 55.37404 55 ft 2 kts 158°
2026-04-26 09:03 25.24445 55.37396 55 ft 2 kts 138°
2026-04-26 09:03 25.24453 55.37386 56 ft 0 kts 121°
2026-04-26 09:03 25.24447 55.37397 55 ft 5 kts 122°
2026-04-26 09:04 25.24432 55.37425 54 ft 1 kts 120°
2026-04-26 09:04 25.24429 55.37431 54 ft 0 kts 120°
2026-04-26 09:05 25.24426 55.37436 54 ft 3 kts 120°
2026-04-26 09:06 25.24404 55.37477 52 ft 9 kts 120°
2026-04-26 09:06 25.24362 55.37552 50 ft 13 kts 121°
2026-04-26 09:06 25.24308 55.37648 49 ft 15 kts 122°
2026-04-26 09:06 25.24273 55.37739 51 ft 11 kts 88°
2026-04-26 09:07 25.24310 55.37800 56 ft 7 kts 34°
2026-04-26 09:07 25.24344 55.37825 58 ft 0 kts 33°
2026-04-26 09:07 25.24355 55.37835 58 ft 4 kts 35°
2026-04-26 09:07 25.24360 55.37838 58 ft 0 kts 34°
2026-04-26 09:09 25.24362 55.37840 58 ft 1 kts 34°
2026-04-26 09:09 25.24378 55.37852 58 ft 5 kts 34°
2026-04-26 09:09 25.24426 55.37888 58 ft 9 kts 33°
2026-04-26 09:09 25.24498 55.37942 58 ft 13 kts 35°
2026-04-26 09:10 25.24574 55.37997 58 ft 8 kts 33°
2026-04-26 09:10 25.24627 55.38036 58 ft 7 kts 33°
2026-04-26 09:10 25.24639 55.38045 58 ft 2 kts 34°
2026-04-26 09:10 25.24651 55.38053 58 ft 0 kts 33°
2026-04-26 09:12 25.24652 55.38054 58 ft 0 kts 33°
2026-04-26 09:13 25.24657 55.38058 58 ft 2 kts 33°
2026-04-26 09:13 25.24676 55.38072 58 ft 4 kts 33°
2026-04-26 09:13 25.24712 55.38096 58 ft 5 kts 27°
2026-04-26 09:14 25.24768 55.38088 58 ft 12 kts 318°
2026-04-26 09:14 25.24843 55.37960 58 ft 45 kts 302°
2026-04-26 09:14 25.25174 55.37364 52 ft 132 kts 301°
2026-04-26 09:14 25.25765 55.36283 197 ft 185 kts 301°
2026-04-26 09:15 25.26431 55.35028 1043 ft 200 kts 300°
2026-04-26 09:15 25.27097 55.33698 2152 ft 211 kts 302°
2026-04-26 09:15 25.27868 55.32315 2859 ft 219 kts 303°
2026-04-26 09:15 25.28722 55.30861 3387 ft 235 kts 304°
2026-04-26 09:16 25.29662 55.29289 3860 ft 253 kts 304°
2026-04-26 09:16 25.30679 55.27674 4585 ft 259 kts 305°
2026-04-26 09:16 25.31712 55.26069 5377 ft 262 kts 305°
2026-04-26 09:16 25.32772 55.24412 6149 ft 265 kts 304°
2026-04-26 09:17 25.33831 55.22747 6899 ft 268 kts 304°
2026-04-26 09:17 25.34900 55.21063 7599 ft 272 kts 302°
2026-04-26 09:17 25.35653 55.19168 8271 ft 274 kts 280°
2026-04-26 09:17 25.35772 55.17077 8968 ft 276 kts 269°
2026-04-26 09:18 25.35717 55.14984 9724 ft 277 kts 267°
2026-04-26 09:18 25.35636 55.12816 10377 ft 286 kts 267°
2026-04-26 09:18 25.35552 55.10569 10648 ft 305 kts 267°
2026-04-26 09:18 25.35465 55.08157 10874 ft 325 kts 267°
2026-04-26 09:19 25.35373 55.05600 11143 ft 342 kts 267°
2026-04-26 09:19 25.35275 55.02911 11425 ft 357 kts 268°
2026-04-26 09:19 25.35173 55.00098 11759 ft 370 kts 268°
2026-04-26 09:19 25.35069 54.97245 12291 ft 375 kts 267°
2026-04-26 09:20 25.34964 54.94389 12951 ft 377 kts 267°
2026-04-26 09:20 25.34993 54.91475 13528 ft 381 kts 275°
2026-04-26 09:20 25.35486 54.88599 14081 ft 385 kts 284°
2026-04-26 09:20 25.36271 54.85774 14672 ft 387 kts 286°
2026-04-26 09:21 25.37088 54.82933 15266 ft 389 kts 286°
2026-04-26 09:21 25.37898 54.80116 15857 ft 391 kts 286°
2026-04-26 09:21 25.38725 54.77233 16389 ft 394 kts 286°
2026-04-26 09:21 25.39555 54.74332 16899 ft 397 kts 286°
2026-04-26 09:22 25.40387 54.71422 17444 ft 399 kts 285°
2026-04-26 09:22 25.41222 54.68497 17989 ft 401 kts 285°
2026-04-26 09:22 25.42053 54.65581 18515 ft 403 kts 285°
2026-04-26 09:22 25.42896 54.62618 18993 ft 406 kts 285°
2026-04-26 09:23 25.43744 54.59634 19464 ft 409 kts 285°
2026-04-26 09:23 25.44606 54.56617 19950 ft 412 kts 285°
2026-04-26 09:23 25.45497 54.53609 20448 ft 414 kts 286°
2026-04-26 09:23 25.46402 54.50568 20901 ft 416 kts 285°
2026-04-26 09:24 25.47297 54.47557 21325 ft 419 kts 285°
2026-04-26 09:24 25.48142 54.44714 21736 ft 421 kts 285°
2026-04-26 09:24 25.48896 54.42176 22109 ft 423 kts 285°
2026-04-26 09:24 25.49812 54.39087 22557 ft 425 kts 285°
2026-04-26 09:25 25.50730 54.35988 22961 ft 427 kts 285°
2026-04-26 09:25 25.51658 54.32856 23387 ft 429 kts 285°
2026-04-26 09:25 25.52584 54.29728 23825 ft 430 kts 285°
2026-04-26 09:25 25.53513 54.26586 24195 ft 432 kts 285°
2026-04-26 09:26 25.54448 54.23429 24537 ft 435 kts 285°
2026-04-26 09:26 25.55382 54.20250 24897 ft 437 kts 285°
2026-04-26 09:26 25.56324 54.17038 25218 ft 439 kts 285°
2026-04-26 09:26 25.57264 54.13829 25536 ft 440 kts 285°
2026-04-26 09:27 25.58204 54.10618 25862 ft 442 kts 285°
2026-04-26 09:27 25.59148 54.07388 26156 ft 443 kts 285°
2026-04-26 09:27 25.60090 54.04132 26425 ft 445 kts 284°
2026-04-26 09:27 25.61017 54.00876 26719 ft 445 kts 284°
2026-04-26 09:28 25.61951 53.97596 26978 ft 447 kts 284°
2026-04-26 09:28 25.62879 53.94335 27215 ft 448 kts 284°
2026-04-26 09:28 25.63826 53.91008 27424 ft 450 kts 284°
2026-04-26 09:28 25.64764 53.87708 27636 ft 452 kts 285°
2026-04-26 09:29 25.65708 53.84385 27842 ft 453 kts 285°
2026-04-26 09:29 25.66640 53.81101 28070 ft 454 kts 285°
2026-04-26 09:29 25.67596 53.77731 28308 ft 454 kts 285°
2026-04-26 09:29 25.68530 53.74437 28513 ft 454 kts 285°
2026-04-26 09:30 25.69480 53.71074 28684 ft 456 kts 284°
2026-04-26 09:30 25.70424 53.67722 28830 ft 457 kts 284°
2026-04-26 09:30 25.71371 53.64352 28991 ft 458 kts 284°
2026-04-26 09:30 25.72307 53.61020 29159 ft 459 kts 284°
2026-04-26 09:31 25.73253 53.57646 29332 ft 459 kts 285°
2026-04-26 09:31 25.74202 53.54263 29505 ft 459 kts 285°
2026-04-26 09:31 25.75145 53.50895 29679 ft 458 kts 285°
2026-04-26 09:31 25.76093 53.47514 29815 ft 458 kts 285°
2026-04-26 09:32 25.77030 53.44179 29933 ft 459 kts 285°
2026-04-26 09:32 25.77984 53.40780 30076 ft 459 kts 285°
2026-04-26 09:32 25.78922 53.37433 30311 ft 456 kts 285°
2026-04-26 09:32 25.79859 53.34087 30572 ft 452 kts 285°
2026-04-26 09:33 25.80785 53.30775 30915 ft 447 kts 285°
2026-04-26 09:33 25.81697 53.27512 31235 ft 442 kts 286°
2026-04-26 09:33 25.82596 53.24289 31474 ft 439 kts 286°
2026-04-26 09:33 25.83494 53.21071 31674 ft 437 kts 286°
2026-04-26 09:34 25.84482 53.17881 31820 ft 436 kts 291°
2026-04-26 09:34 25.86956 53.11748 31994 ft 437 kts 292°
2026-04-26 09:34 25.88215 53.08667 32113 ft 436 kts 292°
2026-04-26 09:35 25.89462 53.05607 32264 ft 434 kts 293°
2026-04-26 09:35 25.90696 53.02577 32453 ft 432 kts 293°
2026-04-26 09:35 25.91926 52.99554 32627 ft 430 kts 293°
2026-04-26 09:35 25.93160 52.96516 32761 ft 428 kts 293°
2026-04-26 09:36 25.94371 52.93533 32883 ft 427 kts 293°
2026-04-26 09:36 25.95597 52.90509 32993 ft 427 kts 293°
2026-04-26 09:36 25.96808 52.87521 33098 ft 426 kts 293°
2026-04-26 09:37 25.99251 52.81486 33235 ft 427 kts 293°
2026-04-26 09:37 26.00469 52.78473 33337 ft 426 kts 292°
2026-04-26 09:37 26.01689 52.75452 33459 ft 425 kts 292°
2026-04-26 09:38 26.04281 52.69536 33622 ft 426 kts 295°
2026-04-26 09:38 26.06973 52.63611 33702 ft 427 kts 295°
2026-04-26 09:39 26.09655 52.57672 33821 ft 427 kts 295°
2026-04-26 09:39 26.10994 52.54700 33939 ft 426 kts 295°
2026-04-26 09:39 26.12321 52.51754 34071 ft 425 kts 295°
2026-04-26 09:39 26.13645 52.48825 34179 ft 424 kts 295°
2026-04-26 09:40 26.14993 52.45839 34220 ft 425 kts 295°
2026-04-26 09:40 26.17659 52.39924 34295 ft 426 kts 294°
2026-04-26 09:41 26.20319 52.34013 34438 ft 426 kts 294°
2026-04-26 09:41 26.21636 52.31083 34678 ft 423 kts 294°
2026-04-26 09:41 26.22950 52.28112 34874 ft 421 kts 293°
2026-04-26 09:41 26.24217 52.25180 34994 ft 420 kts 293°
2026-04-26 09:42 26.25478 52.22259 35041 ft 421 kts 293°
2026-04-26 09:42 26.28033 52.16345 35103 ft 423 kts 294°
2026-04-26 09:42 26.29300 52.13410 35222 ft 422 kts 293°
2026-04-26 09:43 26.30577 52.10453 35361 ft 421 kts 293°
2026-04-26 09:43 26.33111 52.04581 35489 ft 421 kts 294°
2026-04-26 09:44 26.35654 51.98694 35539 ft 422 kts 293°
2026-04-26 09:44 26.38073 51.92733 35676 ft 421 kts 289°
2026-04-26 09:45 26.40124 51.86636 35763 ft 421 kts 289°
2026-04-26 09:45 26.42193 51.80467 36133 ft 426 kts 289°
2026-04-26 09:45 26.43227 51.77381 36715 ft 421 kts 289°
2026-04-26 09:46 26.44250 51.74329 37244 ft 417 kts 289°
2026-04-26 09:46 26.45262 51.71305 37557 ft 418 kts 289°
2026-04-26 09:46 26.46277 51.68270 37763 ft 419 kts 289°
2026-04-26 09:46 26.47293 51.65232 37900 ft 423 kts 289°
2026-04-26 09:47 26.48325 51.62138 37902 ft 429 kts 289°
2026-04-26 09:47 26.50435 51.55801 37898 ft 438 kts 289°
2026-04-26 09:48 26.52573 51.49368 37894 ft 445 kts 289°
2026-04-26 09:48 26.54725 51.42884 37898 ft 447 kts 289°
2026-04-26 09:49 26.56893 51.36344 37891 ft 448 kts 289°
2026-04-26 09:49 26.59048 51.29829 37905 ft 449 kts 288°
2026-04-26 09:50 26.61209 51.23305 37910 ft 449 kts 289°
2026-04-26 09:50 26.63367 51.16784 37905 ft 449 kts 288°
2026-04-26 09:51 26.65534 51.10226 37904 ft 448 kts 288°
2026-04-26 09:51 26.67703 51.03649 37906 ft 448 kts 288°
2026-04-26 09:52 26.69837 50.97089 37912 ft 447 kts 288°
2026-04-26 09:52 26.72974 50.87273 37892 ft 446 kts 288°
2026-04-26 09:53 26.75066 50.80717 37901 ft 446 kts 288°
2026-04-26 09:53 26.77150 50.74178 37899 ft 446 kts 288°
2026-04-26 09:54 26.79280 50.67674 37898 ft 447 kts 291°
2026-04-26 09:54 26.82567 50.61700 37908 ft 453 kts 304°
2026-04-26 09:55 26.86560 50.56221 37914 ft 453 kts 305°
2026-04-26 09:55 26.90522 50.50796 37917 ft 453 kts 304°
2026-04-26 09:56 26.94682 50.45458 37914 ft 456 kts 309°
2026-04-26 09:56 26.99082 50.40309 37910 ft 455 kts 309°
2026-04-26 09:57 27.03423 50.35189 37904 ft 454 kts 308°
2026-04-26 09:57 27.07742 50.30036 37927 ft 454 kts 308°
2026-04-26 09:58 27.12099 50.24783 37934 ft 454 kts 307°
2026-04-26 09:58 27.16496 50.19720 37932 ft 459 kts 314°
2026-04-26 09:59 27.21650 50.15362 37929 ft 463 kts 317°
2026-04-26 09:59 27.26805 50.11118 37935 ft 461 kts 317°
2026-04-26 10:00 27.31988 50.06839 37938 ft 461 kts 317°
2026-04-26 10:00 27.37148 50.02560 37936 ft 460 kts 316°
2026-04-26 10:01 27.42173 49.98139 37935 ft 459 kts 315°
2026-04-26 10:01 27.47215 49.93687 37939 ft 459 kts 315°
2026-04-26 10:02 27.52258 49.89238 37938 ft 459 kts 315°
2026-04-26 10:02 27.57279 49.84807 37939 ft 458 kts 315°
2026-04-26 10:03 27.62322 49.80353 37936 ft 458 kts 315°
2026-04-26 10:03 27.67331 49.75925 37930 ft 458 kts 315°
2026-04-26 10:04 27.72364 49.71471 37933 ft 458 kts 315°
2026-04-26 10:04 27.77371 49.67036 37933 ft 457 kts 315°
2026-04-26 10:05 27.82330 49.62628 37935 ft 441 kts 315°
2026-04-26 10:05 27.84716 49.60503 37932 ft 430 kts 315°
2026-04-26 10:05 27.87037 49.58429 37929 ft 425 kts 314°
2026-04-26 10:06 27.91737 49.54219 37932 ft 431 kts 314°
2026-04-26 10:06 27.96435 49.50013 37940 ft 426 kts 314°
2026-04-26 10:07 28.01106 49.45824 37941 ft 429 kts 314°
2026-04-26 10:07 28.05758 49.41620 37937 ft 428 kts 314°
2026-04-26 10:08 28.10422 49.37360 37941 ft 428 kts 314°
2026-04-26 10:08 28.15030 49.33151 37960 ft 427 kts 313°
2026-04-26 10:09 28.19647 49.28929 37957 ft 426 kts 313°
2026-04-26 10:09 28.24259 49.24708 37951 ft 426 kts 313°
2026-04-26 10:10 28.28877 49.20477 37948 ft 425 kts 313°
2026-04-26 10:10 28.33519 49.16219 37948 ft 426 kts 313°
2026-04-26 10:11 28.38134 49.11983 37949 ft 425 kts 313°
2026-04-26 10:11 28.42897 49.07943 37960 ft 432 kts 318°
2026-04-26 10:12 28.47897 49.04192 37951 ft 431 kts 318°
2026-04-26 10:12 28.52860 49.00430 37955 ft 427 kts 318°
2026-04-26 10:13 28.57794 48.96663 37949 ft 430 kts 317°
2026-04-26 10:13 28.62787 48.92833 37946 ft 432 kts 317°
2026-04-26 10:14 28.67742 48.89027 37950 ft 431 kts 318°
2026-04-26 10:14 28.72730 48.85185 37948 ft 432 kts 317°
2026-04-26 10:15 28.77704 48.81351 37948 ft 429 kts 317°
2026-04-26 10:15 28.82645 48.77543 37945 ft 432 kts 317°
2026-04-26 10:16 28.87634 48.73727 37940 ft 430 kts 317°
2026-04-26 10:16 28.92612 48.69912 37944 ft 430 kts 317°
2026-04-26 10:17 28.97585 48.66095 37948 ft 431 kts 318°
2026-04-26 10:17 29.02546 48.62284 37937 ft 428 kts 317°
2026-04-26 10:18 29.07519 48.58456 37935 ft 431 kts 317°
2026-04-26 10:18 29.12441 48.54665 37943 ft 430 kts 317°
2026-04-26 10:19 29.17432 48.50815 37939 ft 430 kts 317°
2026-04-26 10:19 29.22403 48.46977 37935 ft 431 kts 317°
2026-04-26 10:20 29.26557 48.43766 37932 ft 431 kts 317°
2026-04-26 10:20 29.32348 48.39284 37926 ft 430 kts 317°
2026-04-26 10:21 29.37301 48.35445 37929 ft 432 kts 317°
2026-04-26 10:21 29.42269 48.31591 37949 ft 431 kts 317°
2026-04-26 10:22 29.47381 48.27939 37946 ft 435 kts 321°
2026-04-26 10:22 29.52713 48.24494 37945 ft 438 kts 321°
2026-04-26 10:23 29.58024 48.21032 37941 ft 439 kts 321°
2026-04-26 10:23 29.63293 48.17579 37942 ft 435 kts 320°
2026-04-26 10:24 29.68593 48.14087 37938 ft 441 kts 320°
2026-04-26 10:24 29.73906 48.10583 37938 ft 437 kts 320°
2026-04-26 10:25 29.79217 48.07070 37939 ft 440 kts 321°
2026-04-26 10:25 29.84526 48.03558 37936 ft 436 kts 320°
2026-04-26 10:26 29.89801 48.00059 37932 ft 438 kts 320°
2026-04-26 10:26 29.95075 47.96557 37931 ft 440 kts 320°
2026-04-26 10:27 30.00370 47.92950 37927 ft 434 kts 316°
2026-04-26 10:27 30.04763 47.88416 37923 ft 419 kts 303°
2026-04-26 10:28 30.08604 47.83310 37929 ft 418 kts 303°
2026-04-26 10:28 30.12409 47.78232 37922 ft 419 kts 303°
2026-04-26 10:29 30.16212 47.73152 37925 ft 418 kts 303°
2026-04-26 10:29 30.20034 47.68038 37918 ft 418 kts 303°
2026-04-26 10:30 30.23809 47.62982 37922 ft 421 kts 303°
2026-04-26 10:30 30.27625 47.57867 37916 ft 418 kts 303°
2026-04-26 10:31 30.31413 47.52779 37911 ft 419 kts 303°
2026-04-26 10:31 30.35203 47.47683 37909 ft 420 kts 303°
2026-04-26 10:32 30.39009 47.42561 37911 ft 420 kts 303°
2026-04-26 10:32 30.42837 47.37399 37902 ft 422 kts 303°
2026-04-26 10:33 30.46624 47.32290 37924 ft 419 kts 303°
2026-04-26 10:33 30.50446 47.27123 37924 ft 419 kts 303°
2026-04-26 10:34 30.54221 47.22016 37922 ft 420 kts 303°
2026-04-26 10:34 30.58343 47.17132 37928 ft 429 kts 312°
2026-04-26 10:35 30.63007 47.12786 37917 ft 431 kts 312°
2026-04-26 10:35 30.67714 47.08404 37919 ft 435 kts 312°
2026-04-26 10:36 30.72424 47.04010 37919 ft 431 kts 312°
2026-04-26 10:36 30.77118 46.99618 37914 ft 433 kts 312°
2026-04-26 10:37 30.81810 46.95223 37914 ft 431 kts 312°
2026-04-26 10:37 30.86484 46.90835 37901 ft 434 kts 312°
2026-04-26 10:38 30.91148 46.86454 37904 ft 430 kts 312°
2026-04-26 10:38 30.95798 46.82078 37904 ft 433 kts 312°
2026-04-26 10:39 31.00509 46.77639 37900 ft 432 kts 312°
2026-04-26 10:39 31.05196 46.73217 37901 ft 435 kts 312°
2026-04-26 10:40 31.09887 46.68786 37897 ft 435 kts 312°
2026-04-26 10:40 31.14585 46.64341 37895 ft 435 kts 312°
2026-04-26 10:41 31.19253 46.59922 37890 ft 432 kts 312°
2026-04-26 10:41 31.23915 46.55501 37892 ft 431 kts 312°
2026-04-26 10:42 31.28598 46.51052 37894 ft 434 kts 312°
2026-04-26 10:42 31.33285 46.46595 37896 ft 434 kts 312°
2026-04-26 10:43 31.37947 46.42157 37892 ft 436 kts 311°
2026-04-26 10:43 31.42667 46.37657 37886 ft 434 kts 312°
2026-04-26 10:44 31.47347 46.33189 37907 ft 434 kts 311°
2026-04-26 10:44 31.52011 46.28729 37904 ft 436 kts 311°
2026-04-26 10:45 31.56715 46.24227 37902 ft 435 kts 311°
2026-04-26 10:45 31.61402 46.19734 37897 ft 435 kts 311°
2026-04-26 10:46 31.66074 46.15250 37896 ft 434 kts 311°
2026-04-26 10:46 31.70742 46.10766 37895 ft 433 kts 311°
2026-04-26 10:47 31.75442 46.06239 37899 ft 436 kts 311°
2026-04-26 10:47 31.80067 46.01668 37907 ft 434 kts 311°
2026-04-26 10:48 31.84668 45.97097 37909 ft 437 kts 311°
2026-04-26 10:48 31.89301 45.92494 37908 ft 434 kts 311°
2026-04-26 10:49 31.93903 45.87918 37905 ft 436 kts 311°
2026-04-26 10:49 31.98549 45.83292 37902 ft 435 kts 311°
2026-04-26 10:50 32.02387 45.79469 37903 ft 431 kts 311°
2026-04-26 10:50 32.07748 45.74113 37899 ft 438 kts 311°
2026-04-26 10:51 32.14671 45.67193 37893 ft 437 kts 311°
2026-04-26 10:52 32.19283 45.62574 37897 ft 434 kts 311°
2026-04-26 10:52 32.23900 45.57943 37895 ft 437 kts 311°
2026-04-26 10:53 32.28513 45.53310 37897 ft 437 kts 311°
2026-04-26 10:53 32.33164 45.48633 37894 ft 437 kts 310°
2026-04-26 10:54 32.40079 45.41666 37889 ft 438 kts 311°
2026-04-26 10:54 32.44701 45.37003 37892 ft 435 kts 310°
2026-04-26 10:55 32.49335 45.32317 37907 ft 439 kts 310°
2026-04-26 10:55 32.53920 45.27681 37909 ft 434 kts 310°
2026-04-26 10:56 32.58934 45.23405 37910 ft 448 kts 316°
2026-04-26 10:56 32.64093 45.19333 37910 ft 447 kts 317°
2026-04-26 10:57 32.69249 45.15254 37909 ft 442 kts 316°
2026-04-26 10:57 32.74384 45.11177 37910 ft 443 kts 316°
2026-04-26 10:58 32.79490 45.07114 37914 ft 446 kts 316°
2026-04-26 10:58 32.84619 45.03028 37910 ft 445 kts 316°
2026-04-26 10:59 32.89805 44.98890 37900 ft 445 kts 317°
2026-04-26 10:59 32.94950 44.94778 37897 ft 447 kts 317°
2026-04-26 11:00 33.00130 44.90633 37891 ft 446 kts 316°
2026-04-26 11:00 33.05226 44.86551 37896 ft 442 kts 316°
2026-04-26 11:01 33.10381 44.82410 37892 ft 449 kts 317°
2026-04-26 11:01 33.15628 44.78191 37905 ft 451 kts 317°
2026-04-26 11:02 33.21184 44.74681 37896 ft 464 kts 330°
2026-04-26 11:02 33.24326 44.73611 37898 ft 475 kts 339°
2026-04-26 11:02 33.27657 44.73087 37905 ft 486 kts 347°
2026-04-26 11:03 33.34477 44.72861 37903 ft 496 kts 349°
2026-04-26 11:03 33.41434 44.72678 37914 ft 492 kts 349°
2026-04-26 11:04 33.48284 44.72480 37913 ft 494 kts 349°
2026-04-26 11:04 33.55209 44.72272 37920 ft 494 kts 349°
2026-04-26 11:05 33.62041 44.72064 37924 ft 492 kts 349°
2026-04-26 11:05 33.68926 44.71849 37929 ft 493 kts 349°
2026-04-26 11:06 33.75818 44.71632 37930 ft 495 kts 350°
2026-04-26 11:06 33.82693 44.71417 37933 ft 491 kts 350°
2026-04-26 11:07 33.89569 44.71199 37935 ft 496 kts 350°
2026-04-26 11:07 33.96493 44.70982 37938 ft 491 kts 350°
2026-04-26 11:08 34.03330 44.70763 37942 ft 495 kts 351°
2026-04-26 11:08 34.10207 44.70547 37943 ft 491 kts 350°
2026-04-26 11:09 34.17124 44.70325 37936 ft 494 kts 350°
2026-04-26 11:09 34.23949 44.70110 37949 ft 489 kts 351°
2026-04-26 11:10 34.30796 44.69888 37939 ft 495 kts 351°
2026-04-26 11:10 34.37652 44.69669 37964 ft 493 kts 351°
2026-04-26 11:11 34.44522 44.69450 37965 ft 494 kts 351°
2026-04-26 11:11 34.51291 44.68621 37970 ft 480 kts 338°
2026-04-26 11:12 34.57561 44.65937 37981 ft 474 kts 331°
2026-04-26 11:12 34.63678 44.63019 37982 ft 472 kts 331°
2026-04-26 11:13 34.69801 44.60080 37970 ft 472 kts 331°
2026-04-26 11:13 34.75943 44.57124 37968 ft 471 kts 331°
2026-04-26 11:14 34.82030 44.54185 37982 ft 473 kts 332°
2026-04-26 11:14 34.88120 44.51241 37992 ft 472 kts 332°
2026-04-26 11:15 34.94276 44.48257 37984 ft 474 kts 332°
2026-04-26 11:15 35.00430 44.45271 37991 ft 475 kts 332°
2026-04-26 11:16 35.06580 44.42281 37994 ft 475 kts 332°
2026-04-26 11:16 35.12701 44.39301 37997 ft 474 kts 332°
2026-04-26 11:17 35.18840 44.36306 37986 ft 476 kts 332°
2026-04-26 11:17 35.24953 44.33321 38004 ft 473 kts 331°
2026-04-26 11:18 35.31078 44.30286 38001 ft 474 kts 330°
2026-04-26 11:18 35.37153 44.27155 38002 ft 473 kts 330°
2026-04-26 11:19 35.43229 44.24019 38008 ft 475 kts 330°
2026-04-26 11:19 35.49329 44.20871 38005 ft 474 kts 330°
2026-04-26 11:20 35.54419 44.18239 38017 ft 478 kts 331°
2026-04-26 11:20 35.61550 44.14552 38018 ft 475 kts 331°
2026-04-26 11:21 35.67676 44.11378 38024 ft 475 kts 331°
2026-04-26 11:21 35.73770 44.08215 38021 ft 476 kts 331°
2026-04-26 11:22 35.79897 44.05031 38020 ft 474 kts 331°
2026-04-26 11:22 35.85964 44.01871 38015 ft 477 kts 331°
2026-04-26 11:23 35.92110 43.98666 38010 ft 475 kts 331°
2026-04-26 11:23 35.98179 43.95495 38016 ft 477 kts 331°
2026-04-26 11:24 36.04288 43.92298 38005 ft 476 kts 331°
2026-04-26 11:24 36.10417 43.89086 38014 ft 476 kts 331°
2026-04-26 11:25 36.16508 43.85887 38008 ft 477 kts 331°
2026-04-26 11:25 36.22650 43.82657 38015 ft 476 kts 331°
2026-04-26 11:26 36.28733 43.79454 38015 ft 477 kts 332°
2026-04-26 11:26 36.34863 43.76282 38011 ft 478 kts 332°
2026-04-26 11:27 36.41005 43.73104 38014 ft 476 kts 332°
2026-04-26 11:27 36.47136 43.69923 38012 ft 478 kts 332°
2026-04-26 11:28 36.53278 43.66731 38013 ft 477 kts 332°
2026-04-26 11:28 36.59383 43.63551 38020 ft 478 kts 332°
2026-04-26 11:29 36.65554 43.60332 38027 ft 478 kts 332°
2026-04-26 11:29 36.71701 43.57118 38033 ft 479 kts 332°
2026-04-26 11:30 36.76799 43.54417 38037 ft 478 kts 330°
2026-04-26 11:30 36.83907 43.50436 38061 ft 477 kts 330°
2026-04-26 11:31 36.89971 43.47035 38079 ft 477 kts 330°
2026-04-26 11:31 36.95999 43.43654 38090 ft 476 kts 330°
2026-04-26 11:32 37.02045 43.40260 38112 ft 476 kts 330°
2026-04-26 11:32 37.08087 43.36863 38121 ft 476 kts 330°
2026-04-26 11:33 37.14128 43.33462 38138 ft 475 kts 330°
2026-04-26 11:33 37.20173 43.30053 38144 ft 475 kts 330°
2026-04-26 11:34 37.26175 43.26662 38159 ft 475 kts 330°
2026-04-26 11:34 37.31961 43.22777 38163 ft 467 kts 318°
2026-04-26 11:35 37.36521 43.17212 38179 ft 454 kts 302°
2026-04-26 11:35 37.39266 43.11605 38190 ft 447 kts 294°
2026-04-26 11:36 37.42726 43.03540 38196 ft 447 kts 294°
2026-04-26 11:36 37.45654 42.96673 38197 ft 448 kts 294°
2026-04-26 11:37 37.48590 42.89768 38196 ft 446 kts 294°
2026-04-26 11:37 37.51518 42.82858 38183 ft 447 kts 294°
2026-04-26 11:38 37.54446 42.75933 38189 ft 445 kts 294°
2026-04-26 11:38 37.57361 42.69023 38188 ft 448 kts 294°
2026-04-26 11:39 37.60283 42.62087 38182 ft 448 kts 293°
2026-04-26 11:39 37.63198 42.55163 38164 ft 448 kts 294°
2026-04-26 11:40 37.66093 42.48273 38178 ft 447 kts 294°
2026-04-26 11:40 37.69007 42.41322 38181 ft 449 kts 294°
2026-04-26 11:42 37.80631 42.13439 38142 ft 451 kts 292°
2026-04-26 11:43 37.83548 42.06402 38146 ft 454 kts 292°
2026-04-26 11:43 37.86456 41.99375 38120 ft 452 kts 292°
2026-04-26 11:44 37.89358 41.92343 38112 ft 453 kts 292°
2026-04-26 11:44 37.92835 41.85623 38111 ft 462 kts 305°
2026-04-26 11:45 37.97097 41.79503 38108 ft 468 kts 306°
2026-04-26 11:45 38.01395 41.73350 38113 ft 467 kts 306°
2026-04-26 11:46 38.05684 41.67186 38102 ft 467 kts 306°
2026-04-26 11:46 38.09963 41.61021 38107 ft 467 kts 306°
2026-04-26 11:47 38.14245 41.54836 38104 ft 466 kts 306°
2026-04-26 11:47 38.18519 41.48649 38109 ft 469 kts 306°
2026-04-26 11:48 38.22802 41.42437 38115 ft 466 kts 306°
2026-04-26 11:48 38.27070 41.36232 38109 ft 468 kts 306°
2026-04-26 11:49 38.31356 41.29990 38117 ft 468 kts 305°
2026-04-26 11:49 38.35603 41.23794 38119 ft 467 kts 305°
2026-04-26 11:50 38.39872 41.17550 38131 ft 468 kts 305°
2026-04-26 11:50 38.44131 41.11314 38123 ft 466 kts 305°
2026-04-26 11:51 38.48376 41.05016 38131 ft 467 kts 304°
2026-04-26 11:51 38.52523 40.98665 38123 ft 468 kts 304°
2026-04-26 11:52 38.55980 40.93367 38136 ft 467 kts 304°
2026-04-26 11:52 38.60587 40.85685 38143 ft 463 kts 294°
2026-04-26 11:53 38.62932 40.78212 38143 ft 450 kts 278°
2026-04-26 11:54 38.63895 40.66412 38133 ft 448 kts 270°
2026-04-26 11:54 38.64311 40.58565 38126 ft 445 kts 270°
2026-04-26 11:55 38.64720 40.50638 38115 ft 447 kts 270°
2026-04-26 11:55 38.65121 40.42785 38101 ft 444 kts 270°
2026-04-26 11:56 38.65517 40.34870 38085 ft 448 kts 270°
2026-04-26 11:56 38.66010 40.26940 38087 ft 449 kts 275°
2026-04-26 11:57 38.67863 40.19292 38098 ft 461 kts 291°
2026-04-26 11:57 38.71324 40.12306 38116 ft 468 kts 301°
2026-04-26 11:58 38.75141 40.05520 38111 ft 468 kts 301°
2026-04-26 11:58 38.78919 39.98767 38108 ft 468 kts 301°
2026-04-26 11:59 38.82717 39.91945 38104 ft 469 kts 301°
2026-04-26 11:59 38.86512 39.85106 38099 ft 469 kts 301°
2026-04-26 12:00 38.90258 39.78338 38108 ft 468 kts 301°
2026-04-26 12:00 38.94024 39.71517 38086 ft 468 kts 301°
2026-04-26 12:01 38.97795 39.64667 38094 ft 469 kts 301°
2026-04-26 12:01 39.01576 39.57790 38085 ft 469 kts 301°
2026-04-26 12:02 39.05345 39.50919 38089 ft 469 kts 301°
2026-04-26 12:02 39.09082 39.44092 38088 ft 470 kts 301°
2026-04-26 12:03 39.12808 39.37169 38096 ft 466 kts 297°
2026-04-26 12:03 39.15413 39.29630 38118 ft 461 kts 285°
2026-04-26 12:04 39.17552 39.21919 38119 ft 459 kts 285°
2026-04-26 12:04 39.19693 39.14160 38107 ft 460 kts 285°
2026-04-26 12:05 39.21828 39.06398 38110 ft 461 kts 286°
2026-04-26 12:05 39.23954 38.98645 38115 ft 461 kts 285°
2026-04-26 12:06 39.26088 38.90841 38116 ft 461 kts 285°
2026-04-26 12:06 39.28211 38.83051 38124 ft 461 kts 285°
2026-04-26 12:07 39.30326 38.75268 38130 ft 461 kts 286°
2026-04-26 12:07 39.32441 38.67460 38124 ft 461 kts 286°
2026-04-26 12:08 39.34553 38.59639 38111 ft 461 kts 286°
2026-04-26 12:08 39.36649 38.51856 38096 ft 460 kts 286°
2026-04-26 12:09 39.38750 38.44027 38089 ft 462 kts 286°
2026-04-26 12:09 39.40841 38.36215 38111 ft 461 kts 286°
2026-04-26 12:10 39.42927 38.28396 38121 ft 462 kts 285°
2026-04-26 12:10 39.45018 38.20531 38139 ft 462 kts 286°
2026-04-26 12:11 39.47107 38.12650 38146 ft 462 kts 286°
2026-04-26 12:11 39.49182 38.04800 38143 ft 461 kts 285°
2026-04-26 12:12 39.51251 37.96946 38141 ft 464 kts 286°
2026-04-26 12:12 39.53316 37.89081 38143 ft 462 kts 286°
2026-04-26 12:13 39.55378 37.81206 38142 ft 464 kts 286°
2026-04-26 12:13 39.57439 37.73309 38142 ft 463 kts 286°
2026-04-26 12:14 39.59500 37.65382 38139 ft 464 kts 286°
2026-04-26 12:14 39.61546 37.57494 38141 ft 463 kts 286°
2026-04-26 12:15 39.63601 37.49539 38137 ft 464 kts 286°
2026-04-26 12:15 39.65641 37.41622 38137 ft 463 kts 286°
2026-04-26 12:16 39.67684 37.33665 38126 ft 464 kts 285°
2026-04-26 12:16 39.69635 37.26043 38122 ft 463 kts 285°